Weather History for Lihue, HI

Change the Weather History Date:

Thursday, November 27, 2014

  Actual Average Record
Temperature  
Mean Temperature 77 °F 75 °F  
Max Temperature 81 °F 80 °F 85 °F (1977)
Min Temperature 72 °F 70 °F 60 °F (1972)
Degree Days  
Heating Degree Days 0 0  
Month to date heating degree days 0 0  
Since 1 July heating degree days 0 0  
Cooling Degree Days 12 10  
Month to date cooling degree days 311 296  
Year to date cooling degree days 3785 3663  
Growing Degree Days 26 (Base 50)    
Moisture  
Dew Point 60 °F    
Average Humidity 61    
Maximum Humidity 73    
Minimum Humidity 49    
Precipitation  
Precipitation T in 0.14 in 3.63 in (1954)
Month to date precipitation 2.09 4.00  
Year to date precipitation 30.40 31.39  
Snow  
Snow 0.00 in - - ()
Month to date snowfall 0.0  
Since 1 July snowfall 0.0  
Since 1 September snowfall 0.0  
Snow Depth 0.00 in    
Sea Level Pressure  
Sea Level Pressure 30.09 in    
Wind  
Wind Speed 20 mph (NE)    
Max Wind Speed 26 mph    
Max Gust Speed 30 mph    
Visibility 10 miles    
Events      
T = Trace of Precipitation, MM = Missing Value Source: NWS Daily Summary

Daily Weather History Graph

Daily Weather History Graph

Search for Another Location

Airport:

Trip Planner

Search our weather history database for the weather conditions in past years. The results will help you decide how hot, cold, wet, or windy it might be!

Date:

Astronomy

Nov. 27, 2014 Rise Set
Actual Time 6:57 AM HST 5:52 PM HST
Civil Twilight 6:33 AM HST 6:16 PM HST
Nautical Twilight 6:05 AM HST 6:44 PM HST
Astronomical Twilight 5:38 AM HST 7:11 PM HST
Moon 11:37 AM HST (11/27) 11:25 PM HST (11/27)
Length of Visible Light 11h 43m
Length of Day
10h 55m
Waxing Crescent, 33% of the Moon is Illuminated
Nov 27
Waxing Crescent
Nov 29
First Quarter
Dec 6
Full
Dec 14
Last Quarter
Dec 21
New

Hourly Weather History & Observations

Time (HST) Temp. Heat Index Dew Point Humidity Pressure Visibility Wind Dir Wind Speed Gust Speed Precip Events Conditions
12:53 AM 73.9 °F - 57.9 °F 57% 30.12 in 10.0 mi NE 23.0 mph - N/A   Mostly Cloudy
1:53 AM 73.9 °F - 59.0 °F 59% 30.11 in 10.0 mi NE 21.9 mph 28.8 mph N/A   Overcast
2:53 AM 73.9 °F - 57.9 °F 57% 30.09 in 10.0 mi NE 18.4 mph - N/A   Mostly Cloudy
3:53 AM 73.0 °F - 59.0 °F 61% 30.08 in 10.0 mi NE 18.4 mph 25.3 mph N/A   Mostly Cloudy
4:53 AM 73.0 °F - 57.9 °F 59% 30.09 in 10.0 mi NE 21.9 mph - N/A   Mostly Cloudy
5:53 AM 73.0 °F - 57.9 °F 59% 30.09 in 10.0 mi NE 18.4 mph - N/A   Partly Cloudy
6:53 AM 73.0 °F - 59.0 °F 61% 30.11 in 10.0 mi ENE 19.6 mph - N/A   Mostly Cloudy
7:53 AM 75.0 °F - 59.0 °F 57% 30.12 in 10.0 mi ENE 18.4 mph - N/A   Scattered Clouds
8:53 AM 75.2 °F - 60.8 °F 61% 30.13 in 10.0 mi NE 18.4 mph - N/A   Scattered Clouds
9:53 AM 75.9 °F - 59.0 °F 56% 30.13 in 10.0 mi NE 24.2 mph 29.9 mph N/A   Scattered Clouds
10:53 AM 79.0 °F - 60.1 °F 52% 30.11 in 10.0 mi NE 24.2 mph 29.9 mph N/A   Mostly Cloudy
11:53 AM 80.1 °F 80.7 °F 59.0 °F 48% 30.08 in 10.0 mi NE 21.9 mph - N/A   Mostly Cloudy
12:53 PM 80.1 °F 80.7 °F 59.0 °F 48% 30.06 in 10.0 mi NE 18.4 mph 26.5 mph N/A   Scattered Clouds
1:53 PM 79.0 °F - 61.0 °F 54% 30.04 in 10.0 mi NE 19.6 mph - N/A   Mostly Cloudy
2:53 PM 77.0 °F - 60.1 °F 56% 30.04 in 10.0 mi NE 17.3 mph - N/A   Mostly Cloudy
3:53 PM 75.9 °F - 59.0 °F 56% 30.04 in 10.0 mi NE 21.9 mph - N/A   Overcast
4:53 PM 75.0 °F - 61.0 °F 62% 30.06 in 10.0 mi NE 20.7 mph 26.5 mph N/A   Overcast
5:53 PM 75.0 °F - 55.9 °F 51% 30.09 in 10.0 mi ENE 19.6 mph 26.5 mph N/A   Mostly Cloudy
6:53 PM 75.0 °F - 57.9 °F 55% 30.10 in 10.0 mi NE 20.7 mph - N/A   Overcast
7:53 PM 73.9 °F - 57.9 °F 57% 30.11 in 10.0 mi NE 16.1 mph 27.6 mph N/A   Scattered Clouds
8:53 PM 75.0 °F - 61.0 °F 62% 30.11 in 10.0 mi ENE 18.4 mph - N/A   Scattered Clouds
9:53 PM 73.0 °F - 64.0 °F 73% 30.11 in 10.0 mi NE 23.0 mph 27.6 mph 0.00 in   Mostly Cloudy
10:53 PM 73.9 °F - 64.0 °F 71% 30.11 in 10.0 mi NE 20.7 mph 27.6 mph N/A   Mostly Cloudy
11:53 PM 73.9 °F - 64.9 °F 73% 30.09 in 10.0 mi ENE 17.3 mph - N/A   Mostly Cloudy